[[{"header":{"parameterUnit":"m.s-1","parameterCategory":1,"la1":30.2991,"la2":30.254,"lo1":-89.0895,"lo2":-89.0444,"dy":0.0017,"dx":0.0017,"nx":28,"ny":28,"refTime":"2025-11-06T03:00:00:Z","depth":0,"parameterNumber":2,"parameterNumberName":"U-component_of_WINDS"},"data":[0,0,0,0,0,0,0,0,0,0,0,0,0,0,0,0,0,0,0,0,0,0,0,0,0,0,0,0,0,0,0,0,0,0,0,0,0,0,0,0,0,0,0,0,0,0,0,0,0,0,0,0,0,0,0,0,0,0,-2.0557,-2.0558,0,-2.0692,-2.0694,-2.0695,-2.0741,-2.0741,-2.074,-2.074,-2.0877,-2.0881,-2.0885,0,0,0,0,0,0,0,0,0,0,0,0,0,-2.0336,-2.0339,-2.0557,-2.0558,-2.056,-2.0692,-2.0694,-2.0696,-2.0742,-2.0741,-2.074,-2.074,-2.0876,-2.0881,-2.0886,0,0,0,0,0,0,0,0,0,0,0,0,0,-2.0447,-2.0341,-2.0556,-2.0599,-2.0604,-2.0692,-2.0694,-2.0696,-2.0742,-2.0741,-2.074,-2.0739,-2.0874,-2.088,-2.0886,-2.0941,0,0,-2.0905,-2.0908,0,0,0,0,0,0,0,0,-2.0441,-2.0455,-2.0591,-2.0596,-2.0602,-2.0699,-2.0667,-2.0778,-2.0742,-2.0689,-2.074,-2.0739,-2.0818,-2.0829,-2.0856,-2.0948,-2.0954,-2.0906,-2.091,-2.0912,-2.0914,0,0,0,0,0,0,0,-2.0433,-2.045,-2.061,-2.0593,-2.06,-2.0611,-2.0626,-2.0688,-2.0757,-2.0694,-2.0698,-2.0713,-2.0821,-2.085,-2.086,-2.0956,-2.0906,-2.0911,-2.0915,-2.0918,-2.1098,-2.1099,0,0,0,0,0,0,-2.0419,-2.0443,-2.0606,-2.0614,-2.0518,-2.0615,-2.0632,-2.0669,-2.0756,-2.0769,-2.0714,-2.0715,-2.084,-2.0853,-2.0865,-2.0935,-2.0912,-2.0918,-2.0922,-2.1097,-2.1099,-2.11,0,0,0,0,0,0,-2.0414,-2.0433,-2.0601,-2.053,-2.0552,-2.062,-2.0661,-2.0672,-2.0701,-2.0771,-2.0784,-2.0731,-2.084,-2.0856,-2.0922,-2.094,-2.0921,-2.0927,-2.1096,-2.1098,-2.1099,-2.1075,0,0,0,0,0,0,-2.0407,-2.0431,-2.0453,-2.053,-2.0556,-2.0656,-2.0662,-2.0675,-2.0712,-2.0714,-2.079,-2.0802,-2.084,-2.0912,-2.0928,-2.0949,-2.0932,-2.1095,-2.1097,-2.1099,-2.1074,-2.1076,-2.1076,0,0,0,0,0,-2.0399,-2.044,-2.0453,-2.0473,-2.0585,-2.0657,-2.0671,-2.0715,-2.0713,-2.0735,-2.0781,-2.08,-2.0936,-2.0919,-2.0937,-2.0959,-2.1094,-2.1096,-2.1099,-2.1074,-2.1075,-2.1076,0,0,0,0,0,0,-2.0363,-2.0451,-2.0467,-2.0534,-2.0588,-2.0664,-2.0694,-2.0715,-2.077,-2.077,-2.0821,-2.0838,-2.09,-2.0936,-2.0916,-2.1017,-2.1016,-2.1022,-2.0991,-2.0993,-2.0994,-2.0983,-2.0937,0,0,0,0,0,-2.0363,-2.0414,-2.0488,-2.0541,-2.0567,-2.0626,-2.0659,-2.0688,-2.0745,-2.0768,-2.0817,-2.0872,-2.0927,-2.0962,-2.1016,-2.108,-2.1097,-2.1104,-2.1105,-2.1106,-2.111,-2.1146,-2.115,-2.1108,-2.1108,-2.1108,0,0,-2.0363,-2.0417,-2.0447,-2.0535,-2.058,-2.0631,-2.0644,-2.0699,-2.0737,-2.0776,-2.0841,-2.0879,-2.0943,-2.1008,-2.1039,-2.104,-2.1126,-2.1109,-2.1109,-2.1113,-2.1149,-2.1153,-2.1157,-2.1109,-2.1109,-2.1109,0,0,-2.039,-2.0436,-2.0485,-2.053,-2.0597,-2.0636,-2.0648,-2.0721,-2.0748,-2.0815,-2.0844,-2.0891,-2.0985,-2.1029,-2.1064,-2.1107,-2.1126,-2.1123,-2.1128,-2.1163,-2.1166,-2.1169,-2.1184,-2.1189,-2.1127,-2.1127,-2.1127,0,-2.0381,-2.0461,-2.0507,-2.056,-2.0597,-2.0635,-2.0684,-2.0725,-2.0807,-2.0832,-2.0832,-2.095,-2.0996,-2.1071,-2.1082,-2.1109,-2.1123,-2.1114,-2.1162,-2.1165,-2.1169,-2.1184,-2.1189,-2.1126,-2.1127,-2.1127,-2.1127,0,-2.0447,-2.0502,-2.0533,-2.0611,-2.0652,-2.0703,-2.0756,-2.0792,-2.0817,-2.0856,-2.0922,-2.0979,-2.1045,-2.1065,-2.109,-2.1144,-2.1143,-2.1152,-2.1152,-2.1172,-2.1186,-2.1192,-2.1125,-2.1126,-2.1126,-2.1126,0,0,-2.0455,-2.0558,-2.0569,-2.0604,-2.0682,-2.0725,-2.0776,-2.0842,-2.0871,-2.0926,-2.0971,-2.1049,-2.1058,-2.1097,-2.1128,-2.1158,-2.1188,-2.1164,-2.1166,-2.1166,-2.125,-2.1242,-2.1248,-2.1201,-2.1203,-2.1204,-2.1245,0,-2.0492,-2.0587,-2.063,-2.0705,-2.0756,-2.0792,-2.0837,-2.0889,-2.0926,-2.0974,-2.1015,-2.107,-2.1078,-2.1102,-2.1133,-2.1177,-2.1205,-2.1175,-2.1243,-2.1245,-2.1225,-2.1256,-2.1249,-2.1284,-2.1251,-2.1252,-2.1252,0,-2.0547,-2.0602,-2.0683,-2.0754,-2.0777,-2.0817,-2.088,-2.0925,-2.0985,-2.101,-2.1053,-2.1082,-2.1138,-2.1134,-2.1211,-2.1189,-2.1219,-2.1245,-2.1247,-2.1255,-2.1249,-2.1264,-2.1297,-2.1302,-2.1262,-2.1261,-2.1261,0,-2.0545,-2.0639,-2.0699,-2.0729,-2.0813,-2.084,-2.0876,-2.0935,-2.0971,-2.1026,-2.105,-2.111,-2.1143,-2.1189,-2.1233,-2.1227,-2.1306,-2.1306,-2.1327,-2.1326,-2.1342,-2.1341,-2.138,-2.1362,-2.1362,-2.1362,-2.1362,0,-2.0581,-2.0629,-2.0699,-2.0736,-2.0791,-2.0839,-2.0891,-2.093,-2.0982,-2.1027,-2.1061,-2.1103,-2.1159,-2.1207,-2.1242,-2.13,-2.1314,-2.1336,-2.1344,-2.1333,-2.133,-2.1353,-2.1351,-2.1363,-2.1363,-2.1363,-2.1362,0,-2.0587,-2.0637,-2.0705,-2.0778,-2.0798,-2.0835,-2.0898,-2.0935,-2.0974,-2.103,-2.1046,-2.1107,-2.1165,-2.1214,-2.129,-2.1314,-2.1374,-2.1384,-2.1354,-2.1358,-2.1377,-2.1375,-2.1432,-2.1442,-2.1418,-2.1418,-2.1418,0,-2.0607,-2.0645,-2.0723,-2.0755,-2.0791,-2.0843,-2.088,-2.0929,-2.0966,-2.1036,-2.1065,-2.1126,-2.1177,-2.1268,-2.1319,-2.1378,-2.139,-2.1406,-2.1399,-2.1385,-2.1389,-2.1386,-2.139,-2.1406,-2.1406,-2.1406,-2.1406,0,-2.0637,-2.066,-2.0712,-2.0773,-2.0816,-2.0866,-2.0917,-2.0942,-2.1,-2.104,-2.11,-2.114,-2.1218,-2.1278,-2.1342,-2.1379,-2.1402,-2.1408,-2.1416,-2.1404,-2.1385,-2.1395,-2.1355,-2.1406,-2.1406,-2.1406,-2.1406,-2.1406,-2.0651,-2.0686,-2.0746,-2.0803,-2.0847,-2.0893,-2.0931,-2.0975,-2.1026,-2.1094,-2.1119,-2.1181,-2.1238,-2.1327,-2.1364,-2.1412,-2.1415,-2.1427,-2.143,-2.1432,-2.143,-2.1377,-2.1424,-2.1424,-2.1424,-2.1424,-2.1424,0,-2.0683,-2.0723,-2.0775,-2.0845,-2.089,-2.0908,-2.0965,-2.1001,-2.1055,-2.1107,-2.1157,-2.1225,-2.1283,-2.1338,-2.1399,-2.1427,-2.1439,-2.1441,-2.144,-2.1448,-2.1424,-2.1411,-2.143,-2.143,-2.143,-2.143,-2.143,-2.143,-2.0705,-2.0765,-2.0794,-2.0875,-2.0915,-2.0976,-2.1007,-2.105,-2.1091,-2.1167,-2.1215,-2.125,-2.1304,-2.1368,-2.1422,-2.1437,-2.1457,-2.1456,-2.1474,-2.1451,-2.1449,-2.1448,-2.1436,-2.1461,-2.1461,-2.1493,-2.1494,-2.1494]},{"header":{"parameterUnit":"m.s-1","parameterCategory":1,"la1":30.2991,"la2":30.254,"lo1":-89.0895,"lo2":-89.0444,"dy":0.0017,"dx":0.0017,"nx":28,"ny":28,"refTime":"2025-11-06T03:00:00:Z","depth":0,"parameterNumber":3,"parameterNumberName":"V-component_of_WINDS"},"data":[0,0,0,0,0,0,0,0,0,0,0,0,0,0,0,0,0,0,0,0,0,0,0,0,0,0,0,0,0,0,0,0,0,0,0,0,0,0,0,0,0,0,0,0,0,0,0,0,0,0,0,0,0,0,0,0,0,0,3.282,3.2822,0,3.3039,3.3041,3.3044,3.3125,3.3125,3.3124,3.3123,3.3349,3.3356,3.3362,0,0,0,0,0,0,0,0,0,0,0,0,0,3.2479,3.2485,3.282,3.2823,3.2825,3.3038,3.3041,3.3044,3.3125,3.3125,3.3124,3.3123,3.3347,3.3355,3.3363,0,0,0,0,0,0,0,0,0,0,0,0,0,3.2656,3.2487,3.2819,3.2891,3.29,3.3038,3.3041,3.3045,3.3126,3.3125,3.3123,3.3122,3.3345,3.3354,3.3364,3.3447,0,0,3.3395,3.3399,0,0,0,0,0,0,0,0,3.2645,3.2668,3.2878,3.2887,3.2897,3.3054,3.3004,3.318,3.3126,3.304,3.3123,3.3122,3.3252,3.3269,3.3313,3.3457,3.3467,3.3396,3.3402,3.3406,3.3409,0,0,0,0,0,0,0,3.2633,3.2659,3.2907,3.2881,3.2893,3.2915,3.2939,3.3038,3.3149,3.3047,3.3054,3.3079,3.3257,3.3303,3.3319,3.347,3.3395,3.3404,3.341,3.3414,3.37,3.3702,0,0,0,0,0,0,3.2608,3.2648,3.29,3.2913,3.2766,3.2922,3.2949,3.3004,3.3148,3.3169,3.3079,3.3081,3.3286,3.3307,3.3327,3.3437,3.3406,3.3415,3.3421,3.3699,3.3701,3.3702,0,0,0,0,0,0,3.2601,3.263,3.2891,3.2783,3.2818,3.2929,3.2991,3.3009,3.3055,3.3172,3.3193,3.3105,3.3286,3.3313,3.3418,3.3446,3.342,3.3429,3.3697,3.3699,3.3702,3.3655,0,0,0,0,0,0,3.2591,3.2627,3.2657,3.2783,3.2823,3.2976,3.2992,3.3014,3.3072,3.3077,3.3203,3.3222,3.3288,3.3402,3.3428,3.3459,3.3437,3.3695,3.3698,3.3701,3.3655,3.3656,3.3656,0,0,0,0,0,3.2578,3.2635,3.2658,3.2688,3.2863,3.2977,3.3,3.3073,3.3074,3.3107,3.3184,3.3218,3.3439,3.3412,3.3442,3.3476,3.3693,3.3697,3.3701,3.3654,3.3655,3.3656,0,0,0,0,0,0,3.2509,3.2652,3.268,3.2778,3.2865,3.299,3.3034,3.3072,3.316,3.3161,3.325,3.3277,3.3376,3.3437,3.3405,3.3567,3.3569,3.3578,3.3524,3.3526,3.3527,3.351,3.3445,0,0,0,0,0,3.2506,3.2584,3.2706,3.2781,3.2823,3.2921,3.2973,3.3023,3.3116,3.3153,3.3237,3.3327,3.3418,3.3475,3.3564,3.3664,3.3695,3.3703,3.3704,3.3704,3.3712,3.3775,3.3781,3.3714,3.3714,3.3714,0,0,3.2499,3.2587,3.2631,3.277,3.2842,3.2925,3.2951,3.3035,3.3098,3.3166,3.3271,3.3336,3.3443,3.3547,3.3597,3.3601,3.3738,3.3709,3.3708,3.3716,3.3779,3.3785,3.379,3.3717,3.3716,3.3716,0,0,3.2528,3.2601,3.2674,3.2748,3.2858,3.2924,3.2941,3.3062,3.3108,3.3215,3.3269,3.3346,3.3498,3.3574,3.3633,3.3697,3.3734,3.3724,3.3729,3.3789,3.3794,3.3799,3.3825,3.3833,3.3731,3.3731,3.3731,0,3.2506,3.263,3.2707,3.279,3.2852,3.2918,3.2995,3.3063,3.3196,3.3239,3.3241,3.3438,3.3514,3.3639,3.3655,3.3699,3.3725,3.3709,3.3786,3.3793,3.3799,3.3825,3.3834,3.3729,3.3729,3.3729,3.3729,0,3.2599,3.2684,3.2731,3.2859,3.2926,3.3005,3.3097,3.3156,3.3201,3.3268,3.3378,3.3473,3.3585,3.3619,3.3662,3.3752,3.3751,3.3769,3.3772,3.3802,3.3828,3.3838,3.3726,3.3727,3.3727,3.3728,0,0,3.2588,3.2762,3.2777,3.2839,3.2968,3.3037,3.3121,3.3231,3.3281,3.3373,3.3449,3.3579,3.3598,3.3664,3.3718,3.377,3.3821,3.3783,3.3787,3.3789,3.393,3.3916,3.3926,3.3846,3.3848,3.385,3.3922,0,3.2636,3.2788,3.2863,3.2984,3.3067,3.3134,3.3208,3.3297,3.3363,3.3445,3.3518,3.361,3.3626,3.3668,3.3723,3.3802,3.385,3.3798,3.392,3.3923,3.3892,3.3939,3.3924,3.3987,3.3932,3.3934,3.3935,0,3.2712,3.2804,3.2933,3.3057,3.3095,3.316,3.3269,3.3345,3.345,3.3495,3.3571,3.3625,3.372,3.3717,3.3852,3.3816,3.3871,3.3918,3.3922,3.3937,3.3931,3.3957,3.4008,3.4018,3.3951,3.395,3.3949,0,3.2694,3.2851,3.295,3.3,3.3146,3.3191,3.3254,3.3358,3.3421,3.3517,3.356,3.3666,3.3724,3.3807,3.389,3.3879,3.4018,3.4021,3.4061,3.4059,3.4087,3.4084,3.4148,3.4119,3.4119,3.4119,3.4119,0,3.2741,3.2817,3.2944,3.3005,3.3095,3.3182,3.327,3.3339,3.3431,3.3509,3.3574,3.3646,3.375,3.3837,3.3902,3.4007,3.4032,3.4073,3.409,3.4068,3.4063,3.4105,3.4104,3.4121,3.4121,3.412,3.412,0,3.2735,3.2823,3.2935,3.3066,3.3101,3.3162,3.3275,3.3339,3.341,3.3508,3.3536,3.3648,3.3754,3.3844,3.3983,3.4028,3.4137,3.4156,3.4101,3.411,3.4146,3.4142,3.4241,3.426,3.4215,3.4216,3.4216,0,3.2759,3.282,3.2959,3.3015,3.3078,3.3168,3.3233,3.3323,3.3389,3.3516,3.3565,3.3676,3.3769,3.3936,3.4031,3.4139,3.4163,3.4191,3.4179,3.4157,3.4167,3.4163,3.4171,3.4191,3.4191,3.4191,3.4191,0,3.2794,3.2835,3.2926,3.3034,3.311,3.3199,3.329,3.3333,3.3441,3.3513,3.3622,3.3695,3.3839,3.3949,3.4069,3.4138,3.4184,3.4194,3.4209,3.4188,3.4155,3.4176,3.4104,3.4191,3.4191,3.4191,3.4191,3.4191,3.2806,3.2865,3.2973,3.3073,3.3152,3.3237,3.3304,3.3385,3.3477,3.3601,3.3649,3.3762,3.3871,3.4037,3.4106,3.4198,3.4205,3.4226,3.4232,3.4236,3.4234,3.414,3.422,3.422,3.422,3.422,3.422,0,3.2846,3.292,3.3011,3.3138,3.3218,3.3254,3.3359,3.3424,3.3522,3.3619,3.3711,3.3839,3.3948,3.4054,3.4169,3.4223,3.4247,3.425,3.4248,3.4264,3.422,3.4196,3.4229,3.4229,3.4229,3.4229,3.4229,3.4229,3.2876,3.298,3.3035,3.318,3.3254,3.3364,3.3421,3.3502,3.3581,3.3721,3.3812,3.388,3.3982,3.4107,3.421,3.4239,3.4279,3.4277,3.4311,3.4268,3.4266,3.4264,3.4243,3.4284,3.4285,3.4348,3.4349,3.4349]}]]